• In Uzbekistan
  • List of Countries
  • For 7 days
  • Water Temperature
  • Satellite Maps
  • Weather Map
  • Weather Widgets
  • user-avatar
    Login

    Hourly Weather Salta

    Today, 26 July, Wednesday

    Time Temperature Precipitation Wind Pressure Humidity
    00:00 +16°C° 0 mm 1 mps 652 mmHg 67%
    01:00 +15°C° 0 mm 1 mps 652 mmHg 65%
    02:00 +15°C° 0 mm 1 mps 652 mmHg 63%
    03:00 +15°C° 0 mm 1 mps 652 mmHg 63%
    04:00 +15°C° 0 mm 1 mps 652 mmHg 62%
    05:00 +15°C° 0 mm 1 mps 652 mmHg 62%
    06:00 +15°C° 0 mm 1 mps 653 mmHg 60%
    07:00 +16°C° 0 mm 1 mps 653 mmHg 59%
    08:00 +16°C° 0 mm 1 mps 653 mmHg 57%
    09:00 +19°C° 0 mm 1 mps 654 mmHg 54%
    10:00 +21°C° 0 mm 1 mps 655 mmHg 50%
    11:00 +23°C° 0 mm 2 mps 655 mmHg 47%
    12:00 +24°C° 0 mm 2 mps 655 mmHg 46%
    13:00 +25°C° 0 mm 2 mps 655 mmHg 45%
    14:00 +26°C° 0 mm 2 mps 654 mmHg 44%
    15:00 +25°C° 0 mm 2 mps 654 mmHg 48%
    16:00 +24°C° 0 mm 2 mps 653 mmHg 52%
    17:00 +24°C° 0 mm 2 mps 653 mmHg 56%
    18:00 +21°C° 0 mm 2 mps 653 mmHg 63%
    19:00 +20°C° 0 mm 1 mps 653 mmHg 71%
    20:00 +19°C° 0 mm 1 mps 653 mmHg 78%
    21:00 +18°C° 0 mm 1 mps 653 mmHg 78%
    22:00 +18°C° 0 mm 1 mps 653 mmHg 78%
    23:00 +16°C° 0 mm 1 mps 653 mmHg 78%

    Tomorrow, 27 July, Thursday

    Time Temperature Precipitation Wind Pressure Humidity
    00:00 +16°C° 0 mm 1 mps 653 mmHg 76%
    01:00 +16°C° 0 mm 1 mps 652 mmHg 74%
    02:00 +16°C° 0 mm 1 mps 652 mmHg 71%
    03:00 +16°C° 0 mm 1 mps 652 mmHg 69%
    04:00 +16°C° 0 mm 1 mps 652 mmHg 68%
    05:00 +16°C° 0 mm 1 mps 651 mmHg 66%
    06:00 +16°C° 0 mm 1 mps 652 mmHg 63%
    07:00 +18°C° 0 mm 1 mps 652 mmHg 60%
    08:00 +19°C° 0 mm 1 mps 653 mmHg 57%
    09:00 +20°C° 0 mm 2 mps 653 mmHg 52%
    10:00 +23°C° 0 mm 2 mps 654 mmHg 47%
    11:00 +25°C° 0 mm 2 mps 654 mmHg 42%
    12:00 +26°C° 0 mm 3 mps 654 mmHg 41%
    13:00 +27°C° 0 mm 3 mps 653 mmHg 39%
    14:00 +28°C° 0 mm 3 mps 652 mmHg 37%
    15:00 +27°C° 0 mm 3 mps 652 mmHg 40%
    16:00 +26°C° 0 mm 3 mps 652 mmHg 44%
    17:00 +26°C° 0 mm 3 mps 651 mmHg 47%
    18:00 +24°C° 0 mm 2 mps 651 mmHg 54%
    19:00 +22°C° 0 mm 1 mps 651 mmHg 61%
    20:00 +20°C° 0 mm 1 mps 651 mmHg 68%
    21:00 +20°C° 0 mm 1 mps 651 mmHg 67%
    22:00 +19°C° 0 mm 1 mps 651 mmHg 65%
    23:00 +19°C° 0 mm 1 mps 651 mmHg 63%

    Day after tomorrow, 28 July, Friday

    Time Temperature Precipitation Wind Pressure Humidity
    00:00 +18°C° 0 mm 1 mps 651 mmHg 59%
    01:00 +18°C° 0 mm 1 mps 650 mmHg 55%
    02:00 +18°C° 0 mm 1 mps 650 mmHg 51%
    03:00 +18°C° 0 mm 1 mps 650 mmHg 48%
    04:00 +16°C° 0 mm 1 mps 649 mmHg 45%
    05:00 +16°C° 0 mm 1 mps 649 mmHg 43%
    06:00 +18°C° 0 mm 1 mps 650 mmHg 40%
    07:00 +18°C° 0 mm 1 mps 650 mmHg 38%
    08:00 +19°C° 0 mm 1 mps 651 mmHg 36%
    09:00 +21°C° 0 mm 2 mps 652 mmHg 32%
    10:00 +24°C° 0 mm 2 mps 652 mmHg 29%
    11:00 +27°C° 0 mm 2 mps 653 mmHg 25%
    12:00 +28°C° 0 mm 2 mps 652 mmHg 25%
    13:00 +28°C° 0 mm 3 mps 652 mmHg 25%
    14:00 +29°C° 0 mm 3 mps 651 mmHg 25%
    15:00 +28°C° 0 mm 3 mps 651 mmHg 28%
    16:00 +27°C° 0 mm 3 mps 651 mmHg 31%
    17:00 +26°C° 0 mm 2 mps 650 mmHg 34%
    18:00 +24°C° 0 mm 2 mps 650 mmHg 41%
    19:00 +22°C° 0 mm 1 mps 650 mmHg 47%
    20:00 +20°C° 0 mm 1 mps 650 mmHg 53%
    21:00 +20°C° 0 mm 1 mps 650 mmHg 52%
    22:00 +19°C° 0 mm 1 mps 650 mmHg 52%
    23:00 +19°C° 0 mm 1 mps 650 mmHg 51%

    29 July, Saturday

    Time Temperature Precipitation Wind Pressure Humidity
    00:00 +18°C° 0 mm 1 mps 650 mmHg 49%
    01:00 +18°C° 0 mm 1 mps 650 mmHg 47%
    02:00 +18°C° 0 mm 1 mps 650 mmHg 45%
    03:00 +18°C° 0 mm 1 mps 649 mmHg 44%
    04:00 +16°C° 0 mm 1 mps 649 mmHg 42%
    05:00 +16°C° 0 mm 1 mps 649 mmHg 41%
    06:00 +18°C° 0 mm 1 mps 650 mmHg 39%
    07:00 +19°C° 0 mm 1 mps 651 mmHg 38%
    08:00 +19°C° 0 mm 1 mps 651 mmHg 36%
    09:00 +22°C° 0 mm 1 mps 652 mmHg 32%
    10:00 +24°C° 0 mm 1 mps 653 mmHg 28%
    11:00 +27°C° 0 mm 2 mps 654 mmHg 25%
    12:00 +28°C° 0 mm 2 mps 653 mmHg 25%
    13:00 +28°C° 0 mm 2 mps 653 mmHg 25%
    14:00 +29°C° 0 mm 2 mps 652 mmHg 25%
    15:00 +28°C° 0 mm 2 mps 652 mmHg 28%
    16:00 +27°C° 0 mm 2 mps 652 mmHg 32%
    17:00 +27°C° 0 mm 2 mps 652 mmHg 35%
    18:00 +24°C° 0 mm 2 mps 652 mmHg 43%
    19:00 +22°C° 0 mm 1 mps 652 mmHg 51%
    20:00 +20°C° 0 mm 1 mps 652 mmHg 60%
    21:00 +20°C° 0 mm 1 mps 652 mmHg 61%
    22:00 +19°C° 0 mm 1 mps 653 mmHg 62%
    23:00 +19°C° 0 mm 1 mps 653 mmHg 63%

    30 July, Sunday

    Time Temperature Precipitation Wind Pressure Humidity
    00:00 +19°C° 0 mm 1 mps 653 mmHg 63%
    01:00 +18°C° 0 mm 1 mps 652 mmHg 63%
    02:00 +18°C° 0 mm 1 mps 652 mmHg 62%
    03:00 +18°C° 0 mm 1 mps 652 mmHg 62%
    04:00 +16°C° 0 mm 1 mps 652 mmHg 61%
    05:00 +16°C° 0 mm 1 mps 652 mmHg 61%
    06:00 +18°C° 0 mm 1 mps 652 mmHg 58%
    07:00 +18°C° 0 mm 1 mps 653 mmHg 55%
    08:00 +19°C° 0 mm 1 mps 654 mmHg 53%
    09:00 +20°C° 0 mm 2 mps 655 mmHg 47%
    10:00 +23°C° 0 mm 2 mps 655 mmHg 41%
    11:00 +25°C° 0 mm 2 mps 656 mmHg 36%
    12:00 +26°C° 0 mm 3 mps 655 mmHg 35%
    13:00 +27°C° 0 mm 3 mps 655 mmHg 35%
    14:00 +27°C° 0 mm 3 mps 654 mmHg 34%
    15:00 +26°C° 0 mm 3 mps 654 mmHg 37%
    16:00 +25°C° 0 mm 3 mps 653 mmHg 40%
    17:00 +25°C° 0 mm 3 mps 653 mmHg 44%
    18:00 +23°C° 0 mm 2 mps 653 mmHg 51%
    19:00 +20°C° 0 mm 2 mps 653 mmHg 58%
    20:00 +19°C° 0 mm 1 mps 653 mmHg 65%
    21:00 +18°C° 0 mm 1 mps 654 mmHg 66%
    22:00 +18°C° 0 mm 1 mps 654 mmHg 66%
    23:00 +17°C° 0 mm 2 mps 654 mmHg 66%

    31 July, Monday

    Time Temperature Precipitation Wind Pressure Humidity
    00:00 +16°C° 0 mm 2 mps 653 mmHg 67%
    01:00 +16°C° 0 mm 2 mps 653 mmHg 69%
    02:00 +15°C° 0 mm 2 mps 652 mmHg 70%
    03:00 +15°C° 0 mm 1 mps 652 mmHg 72%
    04:00 +14°C° 0 mm 1 mps 652 mmHg 74%
    05:00 +14°C° 0 mm 1 mps 651 mmHg 76%
    06:00 +14°C° 0 mm 1 mps 652 mmHg 72%
    07:00 +15°C° 0 mm 1 mps 652 mmHg 69%
    08:00 +15°C° 0 mm 1 mps 653 mmHg 65%
    09:00 +18°C° 0 mm 2 mps 653 mmHg 57%
    10:00 +20°C° 0 mm 2 mps 653 mmHg 48%
    11:00 +23°C° 0 mm 2 mps 654 mmHg 40%
    12:00 +24°C° 0 mm 2 mps 653 mmHg 39%
    13:00 +25°C° 0 mm 3 mps 652 mmHg 37%
    14:00 +26°C° 0 mm 3 mps 652 mmHg 35%
    15:00 +25°C° 0 mm 3 mps 651 mmHg 38%
    16:00 +24°C° 0 mm 3 mps 651 mmHg 40%
    17:00 +24°C° 0 mm 3 mps 650 mmHg 43%
    18:00 +21°C° 0 mm 2 mps 650 mmHg 50%
    19:00 +19°C° 0 mm 2 mps 650 mmHg 58%
    20:00 +18°C° 0 mm 1 mps 650 mmHg 65%
    21:00 +16°C° 0 mm 1 mps 650 mmHg 64%
    22:00 +16°C° 0 mm 2 mps 650 mmHg 63%
    23:00 +15°C° 0 mm 2 mps 650 mmHg 62%
    Show more